Change the Weather History Date:

Monday, September 16, 2013

  Actual Average Record
Temperature  
Mean Temperature 94 °F -  
Max Temperature 109 °F 93 °F 111 °F (1998)
Min Temperature 80 °F 69 °F 68 °F (1996)
Cooling Degree Days 30    
Growing Degree Days 44 (Base 50)    
Moisture  
Dew Point 64 °F    
Average Humidity 37    
Maximum Humidity 70    
Minimum Humidity 16    
Precipitation  
Precipitation 0.00 in - - ()
Sea Level Pressure  
Sea Level Pressure 29.67 in    
Wind  
Wind Speed 3 mph ()    
Max Wind Speed 14 mph    
Max Gust Speed -    
Visibility 9.5 miles    
Events      
Averages and records for this station are not official NWS values.
T = Trace of Precipitation, MM = Missing Value Source: Averaged Metar Reports

Daily Weather History Graph

Daily Weather History Graph

Search for Another Location

Airport or City:

Trip Planner

Search our weather history database for the weather conditions in past years. The results will help you decide how hot, cold, wet, or windy it might be!

Date:

Astronomy

Sep. 16, 2013 Rise Set
Actual Time 7:09 AM MDT 7:27 PM MDT
Civil Twilight 6:45 AM MDT 7:51 PM MDT
Nautical Twilight 6:18 AM MDT 8:19 PM MDT
Astronomical Twilight 5:50 AM MDT 8:47 PM MDT
Moon 5:30 PM MDT (9/16) 4:11 AM MDT (9/16)
Length of Visible Light 13h 05m
Length of Day
12h 17m
Waxing Gibbous, 90% of the Moon is Illuminated
Sep 16
Waxing Gibbous
Sep 19
Full
Sep 26
Last Quarter
Oct 4
New
Oct 11
First Quarter

Hourly Weather History & Observations

Time (MDT) Temp. Heat Index Dew Point Humidity Pressure Visibility Wind Dir Wind Speed Gust Speed Precip Events Conditions
12:41 AM 89.6 °F 90.1 °F 62.6 °F 40% 29.67 in 10.0 mi WSW 4.6 mph - N/A   Clear
1:41 AM 89.6 °F 90.1 °F 62.6 °F 40% 29.68 in 10.0 mi Calm Calm - N/A   Clear
2:43 AM 86.0 °F 88.2 °F 66.2 °F 51% 29.64 in 10.0 mi Calm Calm - N/A   Clear
3:41 AM 84.2 °F 86.6 °F 66.2 °F 55% 29.66 in 10.0 mi Calm Calm - N/A   Clear
4:41 AM 80.6 °F 83.9 °F 69.8 °F 70% 29.67 in 10.0 mi West 5.8 mph - N/A   Clear
5:47 AM 80.6 °F 83.9 °F 69.8 °F 70% 29.64 in 10.0 mi WSW 3.5 mph - N/A   Clear
6:41 AM 82.4 °F 85.4 °F 68.0 °F 62% 29.69 in 10.0 mi Calm Calm - N/A   Clear
7:42 AM 80.6 °F 83.2 °F 68.0 °F 65% 29.71 in 10.0 mi Calm Calm - N/A   Clear
8:40 AM 85 °F - 67 °F 45% 29.83 in 7 mi NNE 2.2 mph - -  
8:51 AM 93.2 °F 94.1 °F 62.6 °F 36% 29.68 in 10.0 mi ENE 9.2 mph - N/A   Clear
9:44 AM 96.8 °F 97.1 °F 60.8 °F 30% 29.74 in 10.0 mi ENE 10.4 mph - N/A   Clear
10:41 AM 98.6 °F 99.4 °F 60.8 °F 29% 29.75 in 10.0 mi ENE 13.8 mph - N/A   Clear
12:04 PM 102.2 °F 104.2 °F 62.6 °F 27% 29.74 in 10.0 mi ENE 13.8 mph - N/A   Clear
12:42 PM 104.0 °F 106.6 °F 62.6 °F 26% 29.74 in - ENE 10.4 mph - N/A   Clear
1:50 PM 105.8 °F 107.5 °F 60.8 °F 23% 29.71 in 10.0 mi North 4.6 mph - N/A   Clear
2:44 PM 105.8 °F 107.5 °F 60.8 °F 23% 29.65 in 10.0 mi North 4.6 mph - N/A   Clear
2:45 PM 107 °F - 68 °F 20% 29.64 in 7 mi NE 2.2 mph - -   Scattered Clouds
3:44 PM 107.6 °F 108.2 °F 59.0 °F 20% 29.66 in 10.0 mi NNE 5.8 mph - N/A   Clear
4:51 PM 107.6 °F 108.2 °F 59.0 °F 20% 29.64 in 12.0 mi Calm Calm - N/A   Clear
5:32 PM 108 °F - 64 °F 16% 29.58 in 7 mi NE 2.2 mph - -   Scattered Clouds
6:05 PM 107.6 °F 107.5 °F 57.2 °F 19% 29.57 in 12.0 mi ENE 5.8 mph - N/A   Clear
6:49 PM 105.8 °F 104.9 °F 55.4 °F 19% 29.64 in 12.0 mi Calm Calm - N/A   Clear
7:40 PM 104.0 °F 104.6 °F 59.0 °F 23% 29.64 in 10.0 mi East 5.8 mph - N/A   Clear
8:40 PM 98 °F - 69 °F 30% 29.60 in 5 mi SE 4.5 mph - -  
8:49 PM 98.6 °F 100.0 °F 62.6 °F 30% 29.59 in 10.0 mi SSE 5.8 mph - N/A   Clear
9:53 PM 95.0 °F 96.0 °F 62.6 °F 34% 29.69 in 10.0 mi Calm Calm - N/A   Clear
10:44 PM 91.4 °F 95.4 °F 68.0 °F 46% 29.70 in 10.0 mi Calm Calm - N/A   Clear
11:40 PM 90 °F - 73 °F 49% 29.65 in 5 mi Calm Calm - -  
11:49 PM 89.6 °F 92.2 °F 66.2 °F 46% 29.67 in 10.0 mi Calm Calm - N/A   Clear